Flag for Netherlands Weather past 2 weeks in Apeldoorn, Netherlands

Now
41 °F

Light rain. Mostly cloudy.


Feels Like: 33 °F
Forecast: 34 / 47 °F
Wind: 15 mph from West

Location: Deelen

Current Time: Apr 2, 2015 at 5:18:58 AM

Latest Report: Apr 2, 2015 at 4:55 AM


Visibility: N/A

Pressure: 29.80 "Hg

Humidity: 93%

Dew point: 39 °F

Location of ApeldoornLocation

Historic Weather in Apeldoorn — Graph

°F

Apeldoorn temperature yesterday

Maximum temperature yesterday: 48 °F (at 4:55 PM)
Minimum temperature yesterday: 37 °F (at 4:25 AM)
Average temperature yesterday: 42 °F

Past Weeks' High & Low Weather Summary

 TemperatureHumidityPressure
High57 °F (Mar 18, 10:55 AM)100% (Mar 18, 3:25 AM)30.39 "Hg (Mar 18, 3:25 AM)
Low25 °F (Mar 24, 3:55 AM)44% (Mar 24, 4:25 PM)29.15 "Hg (Mar 29, 6:55 PM)
Average42 °F83%29.92 "Hg
* Reported Mar 18 2:25 AM — Apr 2 3:55 AM, Apeldoorn, Weather by CustomWeather, © 2015

Note: Actual official high and low records may vary slightly from our data, if they occured in-between our weather recording intervals... More about our weather records

Advertising

Apeldoorn weather history for previous 24 hours

 ConditionsComfort  
Time TempWeatherWind HumidityBarometerVisibility
3:55 AM
Thu, Apr 2
41 °FPartly cloudy.16 mph93%29.86 "HgN/A
3:25 AM41 °FPassing clouds.16 mph93%29.86 "Hg6 mi
2:55 AM41 °FDrizzle. Overcast.14 mph93%29.89 "HgN/A
2:25 AM41 °FDrizzle. Overcast.13 mph93%29.89 "Hg6 mi
1:55 AM41 °FLight rain. Mostly cloudy.16 mph93%29.92 "HgN/A
1:25 AM43 °FPartly cloudy.15 mph87%29.92 "Hg6 mi
12:55 AM43 °FDrizzle. Overcast.17 mph81%29.95 "HgN/A
12:25 AM43 °FDrizzle. Overcast.17 mph81%29.95 "HgN/A
11:55 PM
Wed, Apr 1
43 °FPartly cloudy.16 mph81%29.95 "HgN/A
11:25 PM43 °FPartly cloudy.16 mph81%29.95 "HgN/A
10:55 PM43 °FMostly cloudy.12 mph81%29.98 "HgN/A
10:25 PM41 °FPartly cloudy.12 mph87%29.98 "HgN/A
9:55 PM41 °FPartly cloudy.12 mph87%30.01 "HgN/A
9:25 PM45 °FLight rain. Partly cloudy.16 mph71%30.01 "HgN/A
8:55 PM45 °FLight rain. Broken clouds.13 mph66%30.01 "HgN/A
8:25 PM45 °FDrizzle. Broken clouds.15 mph66%30.01 "HgN/A
7:55 PM45 °FBroken clouds.14 mph66%30.04 "HgN/A
7:25 PM45 °FBroken clouds.17 mph66%30.04 "HgN/A
6:55 PM45 °FBroken clouds.18 mph66%30.04 "HgN/A
6:25 PM46 °FBroken clouds.20 mph57%30.04 "HgN/A
5:55 PM46 °FBroken clouds.18 mph57%30.04 "HgN/A
5:25 PM46 °FBroken clouds.22 mph53%30.04 "HgN/A
4:55 PM48 °FBroken clouds.22 mph54%30.04 "HgN/A
4:25 PM46 °FBroken clouds.22 mph57%30.04 "HgN/A
3:55 PM43 °FLight rain. Broken clouds.20 mph66%30.04 "HgN/A
3:25 PM45 °FThunderstorms. Broken clouds.15 mph76%30.04 "HgN/A
2:55 PM45 °FScattered clouds.21 mph66%30.04 "HgN/A
2:25 PM43 °FBroken clouds.17 mph76%30.04 "HgN/A
1:55 PM41 °FLight rain. Broken clouds.21 mph81%30.04 "HgN/A
1:25 PM43 °FLight rain. Broken clouds.20 mph76%30.01 "HgN/A
12:55 PM43 °FScattered clouds.18 mph76%30.01 "HgN/A
12:25 PM37 °FSprinkles. Broken clouds.15 mph93%30.01 "HgN/A
11:55 AM39 °FRain. Partly sunny.18 mph81%30.01 "HgN/A
11:25 AM39 °FLight rain. Broken clouds.17 mph81%30.01 "HgN/A
10:55 AM45 °FBroken clouds.16 mph71%29.98 "HgN/A
10:25 AM43 °FPartly sunny.13 mph76%29.98 "HgN/A
9:55 AM43 °FBroken clouds.13 mph81%29.98 "HgN/A
9:25 AM41 °FPassing clouds.12 mph81%29.98 "HgN/A
8:55 AM39 °FPassing clouds.10 mph87%29.95 "HgN/A
8:25 AM39 °FLight rain. Broken clouds.13 mph87%29.95 "HgN/A
7:55 AM37 °FLight rain. Partly cloudy.14 mph87%29.95 "Hg2 mi
7:25 AM39 °FMostly cloudy.9 mph81%29.89 "HgN/A
6:55 AM39 °FMostly cloudy.8 mph81%29.89 "HgN/A
6:25 AM37 °FPassing clouds.15 mph81%29.86 "HgN/A
5:55 AM39 °FPassing clouds.15 mph75%29.86 "HgN/A
5:25 AM37 °FPassing clouds.10 mph87%29.86 "HgN/A
Weather by CustomWeather, © 2015

See weather overviewHow to use our weather pages